Weather Roundup
Issued by NWS Springfield, MO

Home | Current Version | Previous Version | Text Only | Print | Product List | Glossary On
Versions: 1 2 3 4 5 6 7 8 9 10 11 12 13 14 15 16 17 18 19 20 21 22 23 24 25 26 27 28 29 30 31 32 33 34 35 36 37 38 39 40 41 42 43 44 45 46 47 48 49 50
000
NZUS99 KSGF 270459
HRRSGF

HOURLY WEATHER
NATIONAL WEATHER SERVICE SPRINGFIELD MO
1200 AM CDT WED MAY 27 2015

......SGF CWA......

CITY           SKY/WX    TMP DP  RH WIND       PRES   REMARKS
SPRINGFIELD    MOCLDY    66  60  81 SE7       29.99F
JOPLIN         CLOUDY    66  64  93 NE5       29.98S
WEST PLAINS    PTCLDY    67  62  84 S6        30.04F
ROLLA          PTCLDY    66  61  84 S12       29.98F
OSAGE BEACH    PTCLDY    66  61  82 S6        29.98S

......SURROUNDING SGF CWA......

CITY           SKY/WX    TMP DP  RH WIND       PRES   REMARKS
CHANUTE        MOCLDY    65  64  97 CALM      29.98R
PARSONS        CLOUDY    65  64  97 CALM      29.99R
COFFEYVILLE    CLOUDY    65  64  97 N6        29.96S
EMPORIA        PTCLDY    63  59  87 W5        29.97S
SILOAM SPRINGS CLOUDY    66  59  77 E3        30.02R
HARRISON AR    PTCLDY    67  63  87 S8        30.01F
NEAR YELLVILLE PTCLDY    70  63  78 SE5       29.99F

......KANSAS AND MISSOURI......

CITY           SKY/WX    TMP DP  RH WIND       PRES   REMARKS
KANSAS CTY INT FAIR      65  58  78 W7        29.94S
DOWNTOWN KC    PTCLDY    68  59  73 SW6       29.93S
COLUMBIA       MOCLDY    67  61  81 S9        29.96S
SEDALIA        MOCLDY    69  60  73 SW8       29.97F
ST JOSEPH      PTCLDY    62  59  90 W3        29.95R
ST LOUIS       CLEAR     72  60  66 S8        29.98S
SPIRIT OF STL  CLEAR    N/A N/A N/A S9        29.96F
KIRKSVILLE     PTCLDY    60  59  96 S6        29.93S
WICHITA        PTCLDY    63  60  90 S5        29.99R
TOPEKA         MOCLDY    65  59  81 W5        29.96S
OLATHE         MOCLDY    66  62  87 CALM      29.95S

......TENNESSEE......

CITY           SKY/WX    TMP DP  RH WIND       PRES   REMARKS
MEMPHIS        PTCLDY    71  66  84 S7        30.07F
NASHVILLE      PTCLDY    69  67  93 SW6       30.13R

......ARKANSAS.......

CITY           SKY/WX    TMP DP  RH WIND       PRES   REMARKS
FAYETTEVILLE   CLOUDY    66  64  93 CALM      30.02R
FT SMITH       PTCLDY    73  67  81 SE3       30.00R
LITTLE ROCK    MOCLDY    70  65  84 S5        30.04F

......OKLAHOMA.......

CITY           SKY/WX    TMP DP  RH WIND       PRES   REMARKS
TULSA          TSTM      71  69  93 S7        29.96S FOG
PONCA CITY     CLOUDY    70  64  81 SW8       29.99R
MCALESTER      CLOUDY    72  69  90 SE6       29.99R
OKLAHOMA CITY  CLOUDY    72  62  71 CALM      30.00R

......IOWA............

CITY           SKY/WX    TMP DP  RH WIND       PRES   REMARKS
DES MOINES     CLOUDY    62  58  86 W8        29.88S
QUAD CITIES    PTCLDY    67  61  81 SW10      29.85R

......ILLINOIS........

CITY           SKY/WX    TMP DP  RH WIND       PRES   REMARKS
QUINCY         MOCLDY    69  62  78 SW8       29.92S
CHICAGO        MOCLDY    68  60  75 S12       29.83F




USA.gov is the U.S. government's official web portal to all federal, state and local government web resources and services.